Vertical_Velocity
0 -5 3 -2 3 2 -1 6 0 -1 1 1 -6 -3 -2 -1 1 -1 -4 -3 -2 -4 2 -3 -3 -3 -3 -1 -1 0 1 1 0 -1 -3 -2 3 4 2 0 -2 -2 -1
2 5 -4 -1 2 0 3 -3 -3 4 3 1 -6 -3 -1 -7 -3 -5 0 -3 -3 -3 -1 -1 -2 -4 -3 -3 -1 -1 -2 -2 -2 -2 -2 -2 -2 -4 -2 2 4 4 4
2 -0 -3 -2 4 0 1 -1 -3 2 0 -0 -0 -5 -3 -6 -1 0 -2 1 -5 -1 -2 -1 -1 -0 -1 -1 -0 -1 -2 -3 -2 -2 -2 -4 -1 -1 -2 -5 -4 -2 -4
-3 -1 -2 -4 0 3 -3 -3 3 -8 -1 -2 0 -3 -2 -4 1 3 -4 -1 -0 -5 -3 -0 0 0 -1 -2 -2 -2 -3 -3 -3 -1 -2 -2 -4 -4 -3 -3 -3 -2 -2
1 -3 2 -1 3 1 1 -5 -2 -2 3 -8 0 1 -5 -3 -3 -5 -4 -3 -1 -1 -3 -1 -1 -2 -1 -1 -1 -1 -2 -2 -2 -2 -3 -3 -2 -3 -5 -6 -5 -4 -3
-1 -2 1 1 2 2 -1 1 -4 -0 -2 -2 -4 -7 -3 -2 -3 -3 -4 -3 -5 -2 -0 0 -5 -14 -1 -0 -2 -0 -0 -0 -1 -1 -2 -1 -1 -2 -3 -3 -3 -5 -5
-3 3 -4 -4 1 -2 1 -2 -4 -1 0 -5 -4 -6 -9 4 -1 -2 -1 -4 -5 -3 -2 -2 1 2 -13 -4 -1 1 -0 -1 -2 -2 -2 -2 -2 -1 -2 -3 -2 -1 -2
2 0 -2 0 -3 3 1 -6 1 -1 -3 -2 -3 4 4 -15 -16 -2 0 -2 -3 -3 -5 -3 -0 -1 1 1 -9 -5 -2 -2 -0 -1 -1 0 -1 -2 -2 -1 -2 -2 -2
-1 -1 3 -3 2 2 -1 1 2 -2 -2 -3 8 2 -4 1 -8 -17 -5 -1 -3 -3 -3 -6 -7 -3 -3 1 -5 -6 -4 0 -1 -2 -3 -3 -3 -2 -2 -2 -2 -1 -1
-1 -1 -1 -0 2 2 1 2 2 1 0 -2 -0 -0 3 -1 1 5 -12 -8 0 -3 -7 -2 -2 -6 -4 -1 -8 -12 2 -4 -3 -2 -1 -1 -1 -2 -1 -1 -2 -1 -1
-1 -1 1 1 1 2 2 1 0 4 -2 -0 -5 -7 -3 -2 0 0 2 4 -11 -8 -7 -6 -3 -3 -4 -6 -2 -7 -2 -4 -4 -4 -2 -2 -0 -1 -2 -2 -1 -2 -2
9 1 3 5 2 1 1 -0 5 3 -0 -2 -6 0 -0 -1 -3 -5 -3 -1 -1 -1 -2 -4 -4 -5 -5 -5 -5 -0 -4 -6 -1 -4 -4 -3 -2 -2 -1 -1 1 1 -3
5 7 1 3 8 8 3 3 2 18 -2 0 -3 -3 0 -3 -2 -0 -0 -0 -2 -1 -4 -5 -2 -4 -4 -5 -3 -5 -6 -5 -1 -2 -2 -4 -2 -2 -0 -1 1 0 1
3 -2 5 -11 -12 -1 6 3 11 -9 -0 -0 0 1 -4 0 -4 -3 -1 -2 -0 -1 2 -2 -6 -8 -7 -7 -3 2 -2 -5 -2 -1 -2 -2 -2 -2 -2 -4 -1 0 0
-8 -0 3 10 19 7 5 5 -11 5 -1 3 -2 1 0 -6 -1 -0 1 -0 -1 -2 5 3 -7 -6 -7 -3 -3 -1 -2 -4 -4 -3 -3 -1 -1 -2 -2 -2 -1 -1 -1
6 4 1 3 15 -5 9 4 -3 -1 3 1 4 3 -2 -1 -2 -4 -4 -5 -0 -2 -6 -0 1 -3 0 1 -5 -3 -4 -5 -5 -4 -1 -2 -2 -2 -1 1 0 -0 -0
2 0 6 6 2 5 -1 0 5 -3 -0 3 3 2 -3 -1 -1 -2 -4 -1 -1 -1 -6 5 -5 0 -9 -4 0 -4 -5 -5 -4 -6 -4 -5 -3 -1 -1 -1 -1 -0 1
3 3 3 -2 -5 0 -3 -3 -3 2 4 3 -3 -7 0 -3 -1 0 -2 -2 -1 2 -3 -7 3 -1 -3 -3 -3 -2 -2 -1 -6 -4 -2 -5 -2 -2 -3 -2 -1 0 0
1 1 1 -2 6 4 -2 0 3 15 12 2 -0 -4 -3 -3 -3 -0 1 0 1 -1 -2 -5 1 -0 -3 -4 -5 -3 -3 -3 -6 -7 -7 -7 2 -2 -0 -3 0 -0 0
-0 4 5 -1 -7 16 -3 2 -0 8 2 -1 -1 -2 -1 -0 1 3 1 0 0 0 -0 -4 -3 -1 -4 -0 -5 -5 -1 -4 -4 -2 -4 -7 4 -2 -1 -1 -2 -3 -2
1 2 3 -3 5 -9 0 7 21 7 -0 -2 1 2 0 2 2 3 3 3 2 -1 -1 -1 -1 -3 -1 -2 -3 2 -3 -3 1 -5 -6 -2 -2 -4 -4 -6 -6 -9 -4
1 -1 1 3 8 3 0 20 -5 -0 2 -1 1 2 2 -1 1 3 1 5 8 5 -5 -2 3 -2 1 -3 -1 -1 -2 -3 -2 3 -7 1 -5 -1 -3 -3 -3 -1 -1
-1 -3 -4 15 1 9 -4 -0 -0 -1 -1 -0 1 1 1 2 -1 2 -3 3 -1 3 5 6 -1 3 -3 0 0 1 -1 -2 -2 3 -6 -4 -3 -2 -2 -1 -4 -4 -2
-2 -1 1 -0 -3 1 -1 -1 -0 -0 -1 0 1 2 -1 0 3 -1 8 -12 7 -1 5 4 -0 2 -4 -1 -1 -0 0 -2 -0 -1 -7 -9 -4 -3 -2 -1 -1 -2 -2
-1 -0 -1 -3 -2 -2 -1 -1 -1 -1 -0 0 1 -1 -1 -1 3 2 3 1 2 2 -5 -2 1 -2 -1 0 1 -3 2 -4 -1 -0 0 -3 0 -3 0 -1 2 -2 -1
-0 0 2 -0 -2 -3 0 0 -3 -5 -5 -0 3 -1 -2 5 4 -2 -0 -0 -1 10 -3 -10 8 -1 -2 -2 -1 -2 2 -2 -2 -0 -2 -8 -2 -6 -3 3 -1 1 1
Height
3179 3181 3182 3182 3182 3181 3180 3180 3179 3178 3175 3174 3174 3174 3173 3171 3169 3167 3163 3161 3159 3158 3156 3153 3152 3151 3149 3148 3145 3144 3142 3141 3139 3137 3136 3134 3134 3134 3133 3132 3130 3129 3128
3177 3179 3179 3180 3180 3180 3178 3179 3176 3174 3174 3173 3173 3173 3171 3169 3167 3164 3161 3158 3157 3155 3153 3150 3147 3145 3144 3143 3141 3139 3137 3135 3134 3131 3129 3128 3127 3125 3123 3123 3125 3124 3123
3176 3176 3177 3178 3178 3177 3175 3175 3174 3173 3173 3172 3170 3169 3167 3165 3164 3161 3158 3155 3152 3151 3148 3145 3142 3140 3137 3135 3134 3132 3129 3127 3126 3124 3122 3119 3118 3117 3115 3114 3113 3113 3113
3173 3174 3174 3176 3174 3173 3172 3173 3171 3172 3169 3168 3167 3164 3162 3162 3160 3157 3154 3152 3149 3144 3142 3139 3136 3133 3130 3127 3125 3122 3121 3118 3115 3113 3111 3109 3105 3103 3102 3101 3100 3101 3100
3171 3172 3171 3172 3172 3171 3170 3169 3168 3169 3166 3165 3163 3160 3158 3155 3153 3150 3147 3145 3143 3140 3136 3133 3129 3125 3122 3119 3116 3113 3110 3107 3105 3102 3099 3097 3094 3091 3088 3085 3084 3084 3084
3169 3169 3168 3169 3169 3168 3167 3166 3164 3166 3163 3161 3158 3154 3152 3149 3146 3143 3140 3137 3134 3131 3129 3126 3121 3116 3115 3112 3108 3106 3102 3098 3094 3091 3088 3086 3083 3080 3077 3074 3071 3068 3068
3166 3165 3166 3166 3166 3164 3163 3162 3161 3161 3159 3156 3153 3147 3143 3143 3140 3137 3134 3130 3126 3123 3120 3118 3115 3111 3105 3101 3099 3097 3092 3088 3085 3080 3077 3073 3070 3067 3066 3063 3060 3058 3055
3163 3162 3162 3162 3161 3160 3159 3159 3157 3156 3153 3151 3148 3144 3140 3132 3130 3131 3126 3122 3119 3115 3111 3108 3106 3102 3099 3095 3088 3084 3080 3078 3074 3070 3066 3062 3058 3055 3053 3051 3049 3046 3044
3159 3158 3158 3157 3157 3156 3154 3154 3153 3151 3148 3144 3141 3140 3135 3132 3124 3115 3117 3116 3112 3108 3104 3100 3096 3093 3089 3085 3080 3076 3070 3068 3064 3060 3056 3052 3048 3044 3041 3039 3037 3034 3032
3154 3153 3152 3152 3151 3151 3149 3148 3146 3144 3140 3137 3134 3132 3129 3126 3122 3117 3107 3104 3104 3101 3096 3093 3089 3083 3079 3077 3071 3066 3064 3059 3054 3050 3045 3040 3036 3033 3029 3027 3025 3023 3021
3148 3147 3146 3145 3144 3143 3142 3141 3138 3134 3133 3131 3127 3122 3119 3116 3114 3111 3107 3103 3092 3088 3086 3084 3079 3077 3073 3069 3065 3058 3054 3049 3044 3039 3034 3030 3026 3022 3019 3015 3012 3010 3008
3142 3140 3139 3137 3136 3135 3134 3132 3130 3127 3123 3122 3120 3117 3113 3109 3105 3101 3097 3093 3088 3084 3079 3076 3071 3068 3064 3059 3054 3049 3045 3039 3035 3030 3025 3020 3015 3011 3007 3004 3000 2997 2996
3135 3133 3132 3130 3128 3126 3125 3124 3122 3119 3118 3114 3112 3108 3105 3102 3098 3094 3089 3085 3080 3076 3070 3066 3062 3059 3054 3050 3045 3039 3035 3029 3025 3020 3015 3010 3005 3001 2996 2993 2989 2987 2983
3126 3125 3124 3119 3119 3119 3116 3114 3112 3110 3109 3106 3102 3100 3096 3092 3089 3086 3081 3076 3071 3067 3062 3058 3053 3048 3044 3040 3035 3030 3025 3020 3015 3010 3005 3000 2995 2990 2986 2981 2977 2974 2971
3120 3119 3117 3115 3112 3112 3109 3107 3105 3103 3100 3098 3093 3090 3087 3083 3079 3074 3070 3067 3062 3058 3055 3052 3048 3041 3034 3030 3025 3021 3017 3012 3006 3001 2995 2989 2984 2979 2975 2971 2967 2963 2960
3114 3112 3109 3106 3104 3101 3099 3099 3097 3094 3091 3088 3084 3080 3077 3073 3070 3065 3061 3057 3053 3050 3046 3043 3040 3034 3027 3023 3017 3013 3009 3003 2998 2991 2986 2980 2974 2970 2965 2961 2957 2953 2950
3106 3104 3100 3096 3096 3093 3094 3091 3089 3085 3081 3078 3075 3072 3068 3064 3060 3055 3051 3049 3045 3041 3037 3035 3031 3026 3018 3014 3010 3005 3000 2994 2988 2982 2976 2970 2965 2960 2955 2952 2948 2945 2942
3098 3096 3093 3091 3089 3087 3085 3082 3080 3074 3071 3068 3066 3063 3060 3055 3051 3047 3043 3040 3037 3034 3030 3026 3022 3018 3012 3007 3002 2997 2992 2986 2981 2975 2969 2962 2957 2952 2947 2943 2939 2937 2934
3090 3088 3086 3082 3082 3079 3078 3074 3070 3067 3065 3061 3058 3053 3050 3045 3042 3039 3036 3033 3030 3026 3021 3017 3014 3009 3005 3000 2994 2989 2984 2979 2974 2967 2961 2955 2949 2944 2939 2935 2932 2929 2926
3081 3079 3077 3075 3073 3070 3067 3065 3061 3060 3056 3053 3049 3045 3040 3037 3035 3033 3029 3026 3022 3018 3014 3010 3005 3002 2997 2993 2987 2982 2978 2973 2968 2962 2955 2947 2942 2937 2932 2928 2925 2922 2919
3071 3070 3068 3066 3063 3062 3058 3054 3054 3050 3047 3043 3040 3036 3031 3029 3027 3024 3021 3018 3014 3010 3006 3002 2997 2994 2990 2985 2980 2976 2971 2967 2962 2956 2950 2942 2936 2930 2926 2922 2918 2915 2913
3063 3061 3059 3058 3053 3052 3049 3047 3045 3041 3037 3034 3030 3026 3022 3020 3018 3015 3012 3009 3006 3002 2998 2994 2990 2987 2983 2978 2973 2969 2964 2961 2958 2951 2945 2938 2931 2926 2921 2918 2915 2913 2909
3055 3053 3051 3048 3046 3043 3041 3038 3035 3031 3027 3024 3021 3017 3014 3011 3008 3005 3001 2998 2995 2992 2989 2986 2982 2979 2975 2971 2966 2962 2958 2955 2951 2946 2939 2933 2926 2920 2916 2914 2909 2907 2904
3047 3045 3042 3039 3037 3035 3032 3030 3026 3021 3018 3015 3012 3008 3005 3002 2998 2994 2991 2986 2984 2981 2979 2977 2973 2971 2967 2963 2958 2955 2952 2948 2945 2940 2934 2928 2922 2915 2911 2908 2905 2903 2900
3038 3036 3034 3031 3029 3026 3024 3021 3017 3012 3008 3006 3002 2998 2995 2990 2988 2984 2980 2976 2973 2969 2968 2966 2963 2961 2958 2955 2951 2947 2944 2941 2938 2935 2929 2923 2918 2910 2907 2903 2901 2898 2896
3031 3029 3026 3023 3020 3018 3015 3012 3007 3001 2998 2994 2991 2986 2982 2979 2975 2972 2968 2965 2962 2960 2958 2954 2953 2951 2949 2946 2943 2939 2937 2934 2931 2928 2923 2918 2913 2907 2901 2899 2897 2894 2891